Weather reports worldwide

Advertisment
Saint-Quentin, France (7061): temperature & dewpoint: 19.08.2019 08:00:00 - 25.08.2019 08:00:00 (CEST)Saint-Quentin, France (7061): temperature 5cm: 19.08.2019 08:00:00 - 25.08.2019 08:00:00 (CEST)Saint-Quentin, France (7061): temperature -20cm & temperature -100cm: 19.08.2019 08:00:00 - 25.08.2019 08:00:00 (CEST)Saint-Quentin, France (7061): wind speed & gusts: 19.08.2019 08:00:00 - 25.08.2019 08:00:00 (CEST)Saint-Quentin, France (7061): wind direction: 19.08.2019 08:00:00 - 25.08.2019 08:00:00 (CEST)Saint-Quentin, France (7061): reduced air pressure: 19.08.2019 08:00:00 - 25.08.2019 08:00:00 (CEST)Saint-Quentin, France (7061): visibility: 19.08.2019 08:00:00 - 25.08.2019 08:00:00 (CEST)Saint-Quentin, France (7061): sunshine duration: 19.08.2019 08:00:00 - 25.08.2019 08:00:00 (CEST)Saint-Quentin, France (7061): precipitation: 19.08.2019 08:00:00 - 25.08.2019 08:00:00 (CEST)
Date & Time tt [°C] td [°C] tt 5cm [°C] tt -20cm [°C] tt -100cm [°C] ff [km/h] ff [kn] fx [km/h] fx [kn] dd ppp [hPa] vv [km] sd [min] rr [mm]
25.08.2019 08:00:00 - - - - - - - - - - - - - -
25.08.2019 07:00:00 14,3 12,2 9,7 18,6 16,9 5 3 10 5 ENE 1017,8 14 0 0,0
25.08.2019 06:00:00 14,4 11,7 9,3 18,7 16,9 5 3 11 6 ENE 1017,7 13 0 0,0
25.08.2019 05:00:00 14,6 12,8 9,5 18,8 16,9 5 3 9 5 E 1017,7 14 0 0,0
25.08.2019 04:00:00 15,6 12,9 10,2 18,8 16,9 6 3 10 5 NE 1017,7 19 0 0,0
25.08.2019 03:00:00 16,5 13,6 10,9 18,9 16,9 4 2 12 6 NE 1017,7 20 0 0,0
25.08.2019 02:00:00 17,6 13,3 11,5 18,9 16,9 6 3 8 4 ENE 1017,8 20 0 0,0
25.08.2019 01:00:00 18,5 13,1 11,4 19,0 16,9 7 4 9 5 ENE 1017,9 20 0 0,0
25.08.2019 00:00:00 18,4 12,8 12,5 19,0 16,8 8 4 13 7 ENE 1017,9 20 0 0,0
24.08.2019 23:00:00 20,4 12,9 13,7 19,0 16,9 8 5 10 6 ENE 1018,0 20 0 0,0
24.08.2019 22:00:00 22,4 12,9 14,5 18,9 16,8 5 3 8 4 ENE 1017,9 20 0 0,0
24.08.2019 21:00:00 23,1 13,3 15,2 18,8 16,8 3 2 7 4 E 1017,8 20 23 0,0
24.08.2019 20:00:00 25,2 14,9 23,1 18,8 16,8 6 3 13 7 E 1017,7 20 50 0,0
24.08.2019 19:00:00 26,7 14,5 26,0 18,6 16,8 9 5 20 11 ESE 1017,6 20 54 0,0
24.08.2019 18:00:00 27,7 14,3 28,2 18,5 16,9 12 6 23 12 SE 1017,8 20 44 0,0
24.08.2019 17:00:00 27,8 13,7 29,8 18,3 16,8 10 5 22 12 SSE 1018,0 20 55 0,0
24.08.2019 16:00:00 27,8 13,7 32,5 18,2 16,8 13 7 27 14 SE 1018,4 20 60 0,0
24.08.2019 15:00:00 27,4 13,7 32,0 18,1 16,8 15 8 29 16 SE 1018,8 20 60 0,0
24.08.2019 14:00:00 27,2 13,5 30,9 18,0 16,8 16 9 37 20 SE 1019,0 20 60 0,0
24.08.2019 13:00:00 26,7 13,8 29,7 18,0 16,8 19 10 34 18 SE 1019,4 20 60 0,0
24.08.2019 12:00:00 25,2 14,0 27,4 18,0 16,8 21 11 29 15 ESE 1019,9 20 60 0,0
24.08.2019 11:00:00 23,6 13,7 23,7 18,0 16,8 16 9 23 12 ESE 1020,2 20 60 0,0
24.08.2019 10:00:00 21,5 12,9 18,6 18,1 16,8 16 9 22 12 ESE 1020,3 20 60 0,0
24.08.2019 09:00:00 18,2 13,3 15,5 18,1 16,8 6 3 12 7 E 1020,5 20 60 0,0
24.08.2019 08:00:00 15,2 12,3 9,6 18,2 16,8 10 5 13 7 E 1020,4 20 46 0,0
24.08.2019 07:00:00 12,5 10,6 8,8 18,2 16,8 9 5 12 7 E 1020,6 18 0 0,0
24.08.2019 06:00:00 13,9 11,4 11,5 18,3 16,8 11 6 13 7 ENE 1020,5 19 0 0,0
24.08.2019 05:00:00 14,7 11,7 11,0 18,4 16,8 11 6 13 7 ENE 1020,6 19 0 0,0
24.08.2019 04:00:00 15,2 12,0 10,2 18,4 16,8 8 4 12 7 ENE 1020,6 19 0 0,0
24.08.2019 03:00:00 16,4 12,7 11,8 18,5 16,8 10 6 14 8 ENE 1020,7 20 0 0,0
24.08.2019 02:00:00 15,6 12,0 12,2 18,5 16,8 10 5 13 7 ENE 1021,0 17 0 0,0
24.08.2019 01:00:00 17,9 12,8 16,2 18,6 16,8 10 5 16 9 NE 1021,2 20 0 0,0
24.08.2019 00:00:00 19,1 12,4 17,6 18,6 16,9 13 7 18 10 NE 1021,4 20 0 0,0
23.08.2019 23:00:00 20,3 11,0 18,5 18,6 16,9 13 7 16 9 NE 1021,5 20 0 0,0
23.08.2019 22:00:00 21,8 11,2 17,8 18,5 16,8 10 5 13 7 NE 1021,7 20 0 0,0
23.08.2019 21:00:00 23,1 11,8 20,2 18,4 16,8 9 5 16 9 NE 1021,6 20 24 0,0
23.08.2019 20:00:00 24,3 12,9 22,6 18,3 16,8 10 5 16 9 NE 1021,6 20 60 0,0
23.08.2019 19:00:00 26,1 12,5 26,9 18,1 16,8 9 5 17 9 ENE 1021,5 20 60 0,0
23.08.2019 18:00:00 27,2 12,8 30,5 18,0 16,8 4 2 17 9 E 1022,0 20 60 0,0
23.08.2019 17:00:00 27,3 10,9 33,4 17,8 16,8 7 4 19 10 NNE 1022,4 20 60 0,0
23.08.2019 16:00:00 26,7 11,2 30,5 17,6 16,8 11 6 23 12 ESE 1022,9 20 57 0,0
23.08.2019 15:00:00 26,4 11,7 32,3 17,5 16,8 10 5 20 11 E 1023,4 20 60 0,0
23.08.2019 14:00:00 26,3 13,4 31,9 17,4 16,8 4 2 19 10 E 1023,8 20 60 0,0
23.08.2019 13:00:00 24,9 12,8 29,8 17,3 16,8 6 3 18 10 ENE 1024,6 20 60 0,0
23.08.2019 12:00:00 24,0 12,3 27,4 17,3 16,8 6 3 14 7 NE 1025,0 20 60 0,0
23.08.2019 11:00:00 22,2 13,5 22,4 17,4 16,8 6 4 13 7 E 1025,3 19 60 0,0
23.08.2019 10:00:00 19,8 12,8 17,5 17,4 16,8 8 4 14 8 NE 1025,4 20 60 0,0
23.08.2019 09:00:00 16,3 11,9 12,4 17,6 16,9 6 3 13 7 NNE 1025,8 20 60 0,0
23.08.2019 08:00:00 12,5 10,2 6,6 17,7 16,8 5 3 10 5 N 1025,9 20 47 0,0
23.08.2019 07:00:00 10,0 8,8 6,2 17,7 16,8 2 1 6 3 WNW 1025,9 19 0 0,0
23.08.2019 06:00:00 10,7 7,8 6,2 17,8 16,8 4 2 6 4 NE 1025,8 20 0 0,0
23.08.2019 05:00:00 10,6 7,8 7,3 17,9 16,9 6 4 12 7 ENE 1026,1 20 0 0,0
23.08.2019 04:00:00 12,4 9,2 7,7 18,0 16,8 8 4 11 6 NE 1026,2 20 0 0,0
23.08.2019 03:00:00 12,9 9,5 7,3 18,1 16,9 6 3 8 5 NE 1026,4 20 0 0,0
23.08.2019 02:00:00 11,8 9,4 7,1 18,2 16,9 2 1 9 5 NNE 1026,7 20 0 0,0
23.08.2019 01:00:00 14,1 9,9 8,4 18,2 16,9 3 2 6 3 NW 1026,7 20 0 0,0
23.08.2019 00:00:00 14,5 9,7 10,6 18,2 16,9 5 3 14 7 N 1026,4 20 0 0,0
22.08.2019 23:00:00 15,8 9,9 13,4 18,2 16,9 9 5 14 8 N 1026,2 20 0 0,0
22.08.2019 22:00:00 16,8 10,6 14,7 18,1 16,9 10 5 14 8 N 1026,1 20 0 0,0
22.08.2019 21:00:00 19,4 10,4 17,1 18,0 16,9 10 5 16 9 N 1025,5 20 25 0,0
22.08.2019 20:00:00 23,1 9,5 21,4 17,9 16,8 9 5 16 9 NNW 1024,8 20 60 0,0
22.08.2019 19:00:00 24,4 7,9 24,6 17,8 16,9 9 5 16 9 WNW 1024,6 20 60 0,0
22.08.2019 18:00:00 24,8 9,1 27,6 17,5 16,9 9 5 23 12 WNW 1024,7 20 60 0,0
22.08.2019 17:00:00 24,9 9,2 30,2 17,3 16,9 6 3 18 10 W 1024,8 20 60 0,0
22.08.2019 16:00:00 24,7 11,3 31,8 17,2 16,9 9 5 16 9 W 1025,1 20 60 0,0
22.08.2019 15:00:00 23,9 9,5 31,6 17,1 16,9 7 4 17 9 WNW 1025,4 20 60 0,0
22.08.2019 14:00:00 23,5 9,8 31,2 17,0 16,9 6 3 15 8 S 1025,8 20 60 0,0
22.08.2019 13:00:00 22,8 9,9 29,7 17,0 16,9 8 4 15 8 W 1026,2 20 60 0,0
22.08.2019 12:00:00 21,5 10,0 27,3 17,0 16,9 6 3 14 8 NW 1026,5 20 60 0,0
22.08.2019 11:00:00 20,0 10,1 23,2 17,0 16,9 5 3 9 5 NW 1026,6 20 60 0,0
22.08.2019 10:00:00 19,1 11,9 14,7 17,1 16,9 0 0 4 2 N 1026,4 20 60 0,0
22.08.2019 09:00:00 14,8 11,0 10,4 17,2 16,9 0 0 4 2 N 1026,5 20 60 0,0
22.08.2019 08:00:00 10,7 9,3 5,1 17,3 16,9 0 0 9 5 N 1026,4 20 48 0,0
22.08.2019 07:00:00 8,3 7,1 4,7 17,4 16,9 4 2 8 5 WNW 1026,1 20 0 0,0
22.08.2019 06:00:00 8,7 7,0 4,4 17,5 16,9 0 0 5 3 N 1025,6 20 0 0,0
22.08.2019 05:00:00 9,5 8,1 5,3 17,6 16,9 3 1 6 3 ENE 1025,6 20 0 0,0
22.08.2019 04:00:00 9,9 7,8 5,4 17,7 16,9 3 2 5 3 NNW 1025,8 20 0 0,0
22.08.2019 03:00:00 11,2 7,9 5,6 17,7 16,9 0 0 4 2 N 1026,0 20 0 0,0
22.08.2019 02:00:00 12,2 7,9 6,3 17,8 16,9 0 0 6 3 N 1026,0 20 0 0,0
22.08.2019 01:00:00 11,8 8,1 7,1 17,9 16,9 4 2 8 4 N 1026,3 20 0 0,0
22.08.2019 00:00:00 13,7 8,5 9,3 17,9 16,9 6 4 8 4 N 1026,2 20 0 0,0
21.08.2019 23:00:00 14,5 8,7 8,4 17,9 16,9 0 0 2 1 N 1026,3 20 0 0,0
21.08.2019 22:00:00 16,4 8,6 10,6 17,8 16,9 0 0 4 2 N 1026,4 20 0 0,0
21.08.2019 21:00:00 17,4 8,3 11,2 17,8 16,9 5 3 6 4 S 1026,3 20 28 0,0
21.08.2019 20:00:00 20,3 10,7 18,8 17,6 16,9 4 2 9 5 E 1025,8 20 60 0,0
21.08.2019 19:00:00 21,9 8,7 23,4 17,4 16,9 4 2 10 6 ESE 1025,6 20 60 0,0
21.08.2019 18:00:00 22,3 8,4 25,9 17,3 16,9 5 3 11 6 E 1026,1 20 60 0,0
21.08.2019 17:00:00 21,8 8,0 26,5 17,1 16,9 9 5 16 9 ENE 1026,3 20 60 0,0
21.08.2019 16:00:00 22,0 9,2 28,8 16,9 16,9 8 4 14 8 ENE 1026,6 20 60 0,0
21.08.2019 15:00:00 21,7 8,6 28,6 16,8 17,0 5 3 16 9 NE 1027,1 20 60 0,0
21.08.2019 14:00:00 20,7 8,7 26,9 16,7 16,9 4 2 14 7 NNW 1027,5 20 60 0,0
21.08.2019 13:00:00 20,3 8,6 28,0 16,7 17,0 2 1 11 6 ENE 1028,1 20 60 0,0
21.08.2019 12:00:00 19,1 9,6 25,9 16,7 16,9 5 3 11 6 E 1028,7 20 60 0,0
21.08.2019 11:00:00 18,0 10,1 20,5 16,8 16,9 4 2 7 4 E 1029,0 20 60 0,0
21.08.2019 10:00:00 16,6 11,5 13,0 16,9 17,0 2 1 7 4 ENE 1029,0 20 60 0,0
21.08.2019 09:00:00 13,0 10,7 9,6 17,0 17,0 0 0 5 3 N 1029,4 20 60 0,0
21.08.2019 08:00:00 9,4 8,9 2,8 17,1 17,0 5 3 6 3 E 1029,1 17 50 0,2
21.08.2019 07:00:00 7,3 6,7 2,6 17,2 17,0 2 1 3 1 E 1028,7 14 0 0,0
21.08.2019 06:00:00 8,0 7,4 3,0 17,3 17,0 0 0 4 2 N 1028,4 20 0 0,0
21.08.2019 05:00:00 8,6 7,7 3,7 17,4 17,0 0 0 2 1 N 1028,4 20 0 0,0
21.08.2019 04:00:00 9,3 8,1 3,6 17,5 17,0 0 0 4 2 N 1028,4 20 0 0,0
21.08.2019 03:00:00 9,3 7,6 3,9 17,5 17,0 2 1 5 3 NNW 1028,3 20 0 0,0
21.08.2019 02:00:00 9,8 6,9 4,2 17,7 17,0 3 2 5 3 N 1028,5 20 0 0,0
21.08.2019 01:00:00 10,2 7,8 4,8 17,7 17,0 3 1 10 5 NW 1028,4 20 0 0,0
21.08.2019 00:00:00 12,1 8,0 6,0 17,7 17,0 8 4 9 5 NNW 1028,0 20 0 0,0
20.08.2019 23:00:00 11,7 8,0 6,1 17,7 17,0 0 0 11 6 N 1027,7 20 0 0,0
20.08.2019 22:00:00 15,0 8,7 12,7 17,7 17,0 9 5 15 8 NW 1027,2 20 0 0,0
20.08.2019 21:00:00 16,5 8,9 14,6 17,6 17,0 10 5 19 11 NW 1026,6 20 30 0,0
20.08.2019 20:00:00 18,3 9,4 17,7 17,6 17,0 17 9 29 15 WNW 1025,9 20 60 0,0
20.08.2019 19:00:00 20,2 9,7 21,0 17,4 17,0 17 9 31 17 WNW 1025,3 20 60 0,0
20.08.2019 18:00:00 20,9 10,1 21,2 17,3 17,0 21 11 30 16 WNW 1024,6 20 39 0,0
20.08.2019 17:00:00 20,1 9,9 20,9 17,3 17,1 16 8 29 16 WNW 1024,6 20 14 0,0
20.08.2019 16:00:00 21,8 8,7 21,3 17,1 17,0 19 10 31 17 W 1024,1 20 41 0,0
20.08.2019 15:00:00 21,3 9,5 21,9 17,0 17,0 19 10 32 18 WNW 1024,0 20 43 0,0
20.08.2019 14:00:00 19,8 10,5 23,0 16,9 17,0 16 9 30 16 WNW 1023,8 20 49 0,0
20.08.2019 13:00:00 19,2 10,5 22,5 16,9 17,0 11 6 22 12 W 1024,1 20 41 0,0
20.08.2019 12:00:00 18,6 11,2 20,6 17,0 17,1 9 5 19 10 W 1024,1 20 34 0,0
20.08.2019 11:00:00 17,7 12,4 19,6 17,0 17,0 13 7 19 10 W 1023,7 20 60 0,0
20.08.2019 10:00:00 15,7 13,2 - - - 9 5 15 8 W 1023,5 20 - 0,0
20.08.2019 09:00:00 12,3 11,8 10,8 17,2 17,1 5 3 9 5 SW 1023,9 20 33 0,0
20.08.2019 08:00:00 10,4 10,1 6,0 17,3 17,0 0 0 8 4 N 1023,2 13 35 0,0
20.08.2019 07:00:00 8,9 8,4 4,9 17,4 17,1 6 3 7 4 E 1022,9 1,3 0 0,0
20.08.2019 06:00:00 8,9 8,3 4,7 17,4 17,0 3 1 5 3 S 1022,1 0,3 0 0,0
20.08.2019 05:00:00 9,6 9,1 4,6 17,5 17,0 3 2 4 2 S 1021,9 0,3 0 0,2
20.08.2019 04:00:00 9,8 9,2 4,7 17,6 17,1 4 2 6 3 SW 1021,9 0,7 0 0,0
20.08.2019 03:00:00 10,3 9,4 5,2 17,7 17,1 0 0 3 2 N 1022,0 2,6 0 0,0
20.08.2019 02:00:00 11,0 10,1 5,9 17,8 17,0 0 0 4 2 N 1021,8 20 0 0,0
20.08.2019 01:00:00 11,2 9,8 6,5 17,8 17,1 4 2 4 2 SSW 1022,1 20 0 0,0
20.08.2019 00:00:00 11,8 10,2 6,7 17,9 17,1 0 0 7 4 N 1021,9 20 0 0,0
19.08.2019 23:00:00 13,1 10,3 8,7 17,9 17,1 6 4 10 5 NW 1021,0 20 0 0,0
19.08.2019 22:00:00 14,6 10,6 9,6 17,8 17,0 5 3 10 5 NW 1020,4 20 0 0,0
19.08.2019 21:00:00 16,8 10,4 14,6 17,8 17,1 9 5 20 11 NW 1019,7 20 25 0,0
19.08.2019 20:00:00 17,9 10,0 16,6 17,8 17,1 12 7 29 15 WNW 1019,3 20 20 0,0
19.08.2019 19:00:00 20,3 10,7 20,4 17,6 17,0 21 12 33 18 WNW 1018,8 20 46 0,0
19.08.2019 18:00:00 20,8 10,9 21,4 17,6 17,1 22 12 34 19 W 1018,6 20 34 0,0
19.08.2019 17:00:00 21,0 10,5 21,4 17,5 17,1 23 13 41 22 W 1018,5 20 25 0,0
19.08.2019 16:00:00 21,0 11,1 21,6 17,4 17,1 18 10 41 22 WSW 1018,2 20 35 0,0
19.08.2019 15:00:00 20,0 9,8 21,4 17,4 17,1 21 11 37 20 W 1018,3 20 27 0,0
19.08.2019 14:00:00 19,9 10,9 21,5 17,3 17,1 23 12 35 19 WSW 1018,1 20 31 0,0
19.08.2019 13:00:00 19,9 10,9 19,6 17,3 17,1 26 14 37 20 WSW 1017,9 20 24 0,0
19.08.2019 12:00:00 18,9 11,9 18,8 17,3 17,1 22 12 33 18 SW 1017,7 20 47 0,0
19.08.2019 11:00:00 17,1 12,2 18,1 17,4 17,1 19 11 30 16 WSW 1017,6 20 46 0,0
19.08.2019 10:00:00 16,1 12,8 14,8 17,4 17,1 16 9 24 13 SW 1017,1 20 60 0,0
19.08.2019 09:00:00 14,4 12,3 12,2 17,5 17,1 14 8 21 11 SW 1016,9 20 60 0,0
19.08.2019 08:00:00 12,5 11,2 9,9 17,7 17,1 11 6 17 9 SW 1016,8 20 53 0,0

tt = temperature
td = dewpoint
tt 5cm = temperature 5cm
tt -20cm = temperature -20cm
tt -100cm = temperature -100cm
ff = wind speed
fx = gusts
dd = wind direction
ppp = reduced air pressure
vv = visibility
sd = sunshine duration
rr = precipitation

Next stations